Weather History for KMRF - July, 2013

Change the Weather History Date:

Tuesday, July 9, 2013

  Actual Average Record
Temperature  
Mean Temperature 80 °F -  
Max Temperature 87 °F 85 °F 96 °F (2004)
Min Temperature 73 °F 59 °F 55 °F (2007)
Cooling Degree Days 15    
Growing Degree Days 30 (Base 50)    
Moisture  
Dew Point 57 °F    
Average Humidity 44    
Maximum Humidity 57    
Minimum Humidity 35    
Precipitation  
Precipitation 0.00 in - - ()
Sea Level Pressure  
Sea Level Pressure 30.21 in    
Wind  
Wind Speed 10 mph (SE)    
Max Wind Speed 20 mph    
Max Gust Speed 25 mph    
Visibility 10 miles    
Events      
Averages and records for this station are not official NWS values.
T = Trace of Precipitation, MM = Missing Value Source: NWS Daily Summary

Daily Weather History Graph

Daily Weather History Graph

Search for Another Location

Airport or City:

Trip Planner

Search our weather history database for the weather conditions in past years. The results will help you decide how hot, cold, wet, or windy it might be!

Date:

Astronomy

Jul. 09, 2013 Rise Set
Actual Time 7:01 AM CDT 9:01 PM CDT
Civil Twilight 6:34 AM CDT 9:28 PM CDT
Nautical Twilight 6:01 AM CDT 10:01 PM CDT
Astronomical Twilight 5:25 AM CDT 10:36 PM CDT
Moon 8:18 AM CDT (7/9) 9:51 PM CDT (7/9)
Length of Visible Light 14h 54m
Length of Day
13h 59m
New Moon, 2% of the Moon is Illuminated
Jul 9
New Moon
Jul 15
First Quarter
Jul 22
Full
Jul 29
Last Quarter
Aug 6
New

Hourly Weather History & Observations

Time (CDT) Temp. Heat Index Dew Point Humidity Pressure Visibility Wind Dir Wind Speed Gust Speed Precip Events Conditions
1:35 PM 80.6 °F 81.1 °F 59.0 °F 48% 30.27 in 10.0 mi SSE 6.9 mph - N/A   Clear
1:55 PM 82.4 °F 82.0 °F 57.2 °F 42% 30.27 in 10.0 mi South 8.1 mph - N/A   Clear
2:15 PM 82.4 °F 82.5 °F 59.0 °F 45% 30.25 in 10.0 mi SE 8.1 mph - N/A   Clear
2:35 PM 84.2 °F 83.5 °F 57.2 °F 40% 30.24 in 10.0 mi East 3.5 mph - N/A   Clear
2:55 PM 84.2 °F 83.0 °F 55.4 °F 37% 30.24 in 10.0 mi SW 4.6 mph - N/A   Partly Cloudy
3:15 PM 84.2 °F 83.0 °F 55.4 °F 37% 30.23 in 10.0 mi WNW 3.5 mph - N/A   Scattered Clouds
3:35 PM 87.8 °F 86.5 °F 57.2 °F 35% 30.22 in 10.0 mi South 4.6 mph - N/A   Mostly Cloudy
3:55 PM 87.8 °F 86.5 °F 57.2 °F 35% 30.21 in 10.0 mi SSE 4.6 mph - N/A   Scattered Clouds
4:15 PM 86.0 °F 84.5 °F 55.4 °F 35% 30.21 in 10.0 mi East 6.9 mph - N/A   Overcast
4:35 PM 84.2 °F 83.5 °F 57.2 °F 40% 30.19 in 10.0 mi ESE 13.8 mph 19.6 mph N/A   Overcast
4:55 PM 84.2 °F 83.5 °F 57.2 °F 40% 30.19 in 10.0 mi ESE 12.7 mph 19.6 mph N/A   Mostly Cloudy
5:15 PM 84.2 °F 83.5 °F 57.2 °F 40% 30.19 in 10.0 mi ESE 10.4 mph - N/A   Mostly Cloudy
5:35 PM 84.2 °F 83.5 °F 57.2 °F 40% 30.18 in 10.0 mi SSE 11.5 mph 16.1 mph N/A   Overcast
5:55 PM 84.2 °F 83.0 °F 55.4 °F 37% 30.18 in 10.0 mi SSE 13.8 mph - N/A   Mostly Cloudy
6:15 PM 87.8 °F 86.5 °F 57.2 °F 35% 30.17 in 10.0 mi SE 10.4 mph 16.1 mph N/A   Mostly Cloudy
6:35 PM 86.0 °F 84.5 °F 55.4 °F 35% 30.17 in 10.0 mi SE 19.6 mph 24.2 mph N/A   Mostly Cloudy
6:55 PM 84.2 °F 83.5 °F 57.2 °F 40% 30.17 in 10.0 mi SE 16.1 mph 23.0 mph N/A   Mostly Cloudy
7:15 PM 82.4 °F 82.0 °F 57.2 °F 42% 30.17 in 10.0 mi SE 13.8 mph - N/A   Mostly Cloudy
7:35 PM 82.4 °F 82.0 °F 57.2 °F 42% 30.18 in 10.0 mi SE 18.4 mph 25.3 mph N/A   Overcast
7:55 PM 80.6 °F 80.8 °F 57.2 °F 45% 30.19 in 10.0 mi SE 16.1 mph 20.7 mph N/A   Overcast
8:15 PM 80.6 °F 80.8 °F 57.2 °F 45% 30.19 in 10.0 mi SE 13.8 mph 21.9 mph N/A   Mostly Cloudy
8:35 PM 78.8 °F - 57.2 °F 47% 30.20 in 10.0 mi SE 15.0 mph - N/A   Mostly Cloudy
8:55 PM 78.8 °F - 57.2 °F 47% 30.20 in 10.0 mi SE 13.8 mph 20.7 mph N/A   Overcast
9:15 PM 78.8 °F - 57.2 °F 47% 30.20 in 10.0 mi SE 11.5 mph - N/A   Mostly Cloudy
9:35 PM 78.8 °F - 57.2 °F 47% 30.21 in 10.0 mi SE 11.5 mph 17.3 mph N/A   Overcast
9:55 PM 78.8 °F - 57.2 °F 47% 30.21 in 10.0 mi SE 13.8 mph - N/A   Overcast
10:15 PM 77.0 °F - 59.0 °F 54% 30.21 in 10.0 mi South 15.0 mph 21.9 mph N/A   Overcast
10:35 PM 75.2 °F - 59.0 °F 57% 30.22 in 10.0 mi SE 10.4 mph - N/A   Overcast
10:55 PM 75.2 °F - 59.0 °F 57% 30.22 in 10.0 mi SE 11.5 mph - N/A   Scattered Clouds
11:15 PM 73.4 °F - 57.2 °F 57% 30.23 in 10.0 mi ESE 11.5 mph - N/A   Clear
11:35 PM 73.4 °F - 57.2 °F 57% 30.23 in 10.0 mi SE 13.8 mph - N/A   Clear
11:55 PM 73.4 °F - 57.2 °F 57% 30.24 in 10.0 mi SE 10.4 mph - N/A   Clear